Tracking 29892 objects as of 21-Nov-2024
HD Live streaming from Space Station
objects crossing your sky now

COSMOS 1275 DEB

Track COSMOS 1275 DEB now!
10-day predictions


NORAD ID: 13470
Int'l Code: 1981-053FS
Perigee: 956.4 km
Apogee: 1,315.4 km
Inclination: 82.8 °
Period: 107.9 minutes
Semi major axis: 7506 km
RCS: 0.063 m2 (small)
Launch date: June 4, 1981
Source: Commonwealth of Independent States (former USSR) (CIS)
Launch site: PLESETSK MISSILE AND SPACE COMPLEX (PKMTR)

Note: This is SATELLITE DEBRIS
Your satellite tracking list
Your tracking list is empty




NASA's NSSDC Master Catalog

Two Line Element Set (TLE):
1 13470U 81053FS  24324.75036818  .00000504  00000-0  83529-3 0  9994
2 13470  82.8210 226.7329 0239062 307.0182 115.8304 13.34784248 66088
Source of the keplerian elements: AFSPC